Flag Weather past 2 weeks in Granada, Spain

Now
64 °F

Fog.


Feels Like: 64 °F
Forecast: 48 / 65 °F
Wind: 24 mph from South

Location: Granada / Aeropuerto

Current Time: Nov 23, 2014 at 6:07:49 AM

Latest Report: Nov 23, 2014 at 5:00 AM


Visibility: 6 mi

Pressure: 29.79 "Hg

Humidity: 54%

Dew point: 47 °F

Location of GranadaLocation

Historic Weather in Granada — Graph

°F

Granada temperature yesterday

Maximum temperature yesterday: 74 °F (at 5:00 PM)
Minimum temperature yesterday: 50 °F (at 3:00 AM)
Average temperature yesterday: 62 °F

Past Weeks' High & Low Weather Summary

 TemperatureHumidityPressure
High74 °F (Nov 22, 5:00 PM)100% (Nov 8, 7:00 AM)30.10 "Hg (Nov 8, 7:00 AM)
Low32 °F (Nov 10, 8:00 AM)26% (Nov 22, 5:00 PM)29.70 "Hg (Nov 22, 5:00 PM)
Average53 °F79%29.95 "Hg
* Reported Nov 8 7:00 AM — Nov 23 4:00 AM, Granada, Weather by CustomWeather, © 2014

Note: Actual official high and low records may vary slightly from our data, if they occured in-between our weather recording intervals... More about our weather records

Advertising

Granada weather history for previous 24 hours

 ConditionsComfort  
Time TempWeatherWind HumidityBarometerVisibility
4:00 AM
Nov 23
65 °FFog.16 mph53%29.79 "Hg6 mi
3:00 AM65 °FFog.18 mph52%29.81 "Hg6 mi
2:00 AM65 °FFog.23 mph54%29.81 "Hg5 mi
1:00 AM64 °FFog.17 mph57%29.82 "Hg4 mi
12:00 AM66 °FFog.31 mph53%29.79 "Hg4 mi
11:00 PM
Nov 22
70 °FFog.28 mph39%29.76 "Hg4 mi
10:00 PM69 °FOvercast.14 mph42%29.78 "Hg4 mi
9:00 PM71 °FFog.28 mph36%29.77 "Hg4 mi
8:00 PM73 °FSmoke.28 mph28%29.75 "Hg2 mi
7:00 PM73 °FFog.24 mph26%29.73 "Hg2 mi
6:00 PM72 °FMild.15 mph28%29.74 "Hg6 mi
5:00 PM74 °FSmoke.17 mph26%29.70 "Hg6 mi
4:00 PM72 °FOvercast.5 mph31%29.71 "Hg9 mi
3:00 PM72 °FMild.13 mph27%29.75 "Hg11 mi
1:00 PM73 °FOvercast.14 mph32%29.81 "Hg9 mi
12:00 PM67 °FMild.2 mph56%29.88 "Hg12 mi
11:00 AM61 °FCool.7 mph65%29.90 "Hg11 mi
10:00 AM58 °FOvercast.2 mph71%29.92 "Hg9 mi
9:00 AM57 °FCool.7 mph70%29.93 "Hg13 mi
8:00 AM54 °FPartly sunny.1 mph77%29.93 "Hg12 mi
7:00 AM56 °FPassing clouds.12 mph71%29.93 "Hg12 mi
6:00 AM53 °FCool.1 mph77%29.94 "Hg15 mi
Weather by CustomWeather, © 2014

See weather overviewHow to use our weather pages